Voltar ao catálogo

BEIDOU 8

AtivoNavegaçãoGEO
NORAD 37384·PAYLOAD·🇨🇳 China

Lançado Apr 9, 2011 de Xichang Satellite Launch Center

Loading…

TLE

AtualizadoSource: Space-Track

Época: Sep 11, 2026, 17:17 UTC

1 37384U 11013A   26254.72041400 -.00000177  00000-0  00000-0 0  9994
2 37384  62.5388  39.3441 0034682 183.6392 132.9930  1.00292639 56525

Acompanhe BEIDOU 8 em tempo real com AllMySat

Download on the App Store